CAPE
2080 1264 786 1429 497 1104 961 1402 1423 1807 1956 1627 1745 1815 1386 1602 1654 1840 1170 1601 517 33
1249 2220 805 503 1366 434 1118 765 1471 1612 2268 1800 1729 1663 2062 1791 1523 1983 1519 1096 1344 448
1260 1456 1854 681 615 1866 665 1100 1044 1711 1621 1958 2060 1903 1738 2169 2068 1759 1782 1360 1294 1120
1612 1244 1842 1512 648 1244 1583 1424 1300 1936 1664 1901 1858 2275 1931 1733 1999 2208 1901 1680 1410 1167
1990 1769 1324 1950 1718 582 1739 1477 2420 2359 2100 2180 2009 2012 2336 2121 2124 1783 2018 1964 1514 1283
2159 2273 1802 1565 1624 2011 926 2167 1542 2544 2463 2343 2267 2282 2170 2308 2358 1886 2021 2052 1886 1615
2487 2474 2514 2105 1770 1437 2048 1708 2780 1710 2409 2446 2422 2242 2356 2309 2307 2316 1791 2183 2177 1927
2775 2675 2645 2587 2629 2325 1528 2165 2098 2621 2039 2607 2438 2474 2315 2406 2438 2395 2393 1883 2309 2278
2856 2818 2753 2772 2619 2784 2599 1892 2427 2369 2369 2601 2805 2799 2165 2396 2513 2508 2485 2505 2131 2476
2840 2868 2934 2844 2871 2730 2798 2864 2405 2305 2697 2430 2728 2714 1607 1540 2588 2543 2584 2596 2605 2370
2764 2968 2971 3121 2933 3067 2940 3051 3137 2988 2656 3034 2876 2719 1611 760 2332 2660 2556 2724 2711 2657
2664 2814 3000 3062 3331 3248 3282 3200 3236 3324 3266 3186 3244 2762 1843 370 1763 2565 2710 2689 2674 2806
2826 3062 3005 3171 3264 3402 3459 3484 3496 3429 3561 3411 3441 3350 1699 339 2411 2591 2659 2712 2628 2380
3354 3440 3559 3320 3365 3554 3637 3695 3674 3761 3691 3715 3587 3514 2161 563 2379 2989 2989 2835 2677 2528
CIN
-65 -116 -160 -82 -225 -127 -132 -104 -85 -63 -57 -69 -63 -55 -90 -61 -56 -48 -91 -49 -150 -250
-159 -59 -220 -257 -124 -261 -134 -162 -116 -79 -77 -83 -78 -75 -54 -72 -98 -47 -83 -128 -100 -195
-221 -190 -121 -255 -242 -88 -195 -116 -136 -106 -122 -88 -82 -78 -73 -42 -55 -74 -93 -131 -112 -140
-190 -234 -126 -145 -289 -174 -119 -124 -151 -114 -135 -111 -87 -68 -70 -78 -63 -44 -68 -95 -125 -141
-147 -163 -229 -121 -153 -296 -150 -162 -88 -102 -99 -82 -94 -79 -63 -73 -49 -88 -80 -79 -129 -178
-151 -124 -204 -226 -194 -159 -296 -140 -150 -73 -75 -102 -99 -84 -79 -69 -64 -95 -96 -95 -96 -137
-181 -164 -147 -206 -251 -293 -207 -215 -84 -178 -100 -95 -102 -113 -92 -84 -84 -85 -119 -89 -93 -107
-205 -209 -192 -187 -187 -233 -335 -200 -192 -111 -163 -93 -107 -120 -137 -109 -102 -102 -101 -145 -100 -117
-242 -232 -237 -225 -246 -209 -232 -317 -210 -218 -187 -144 -124 -123 -217 -160 -121 -114 -106 -112 -149 -84
-286 -287 -270 -269 -240 -249 -230 -214 -286 -285 -222 -249 -206 -194 -372 -355 -135 -137 -134 -135 -134 -144
-326 -311 -311 -267 -284 -239 -242 -231 -230 -251 -275 -211 -258 -242 -412 -591 -191 -130 -145 -131 -143 -146
-368 -360 -332 -323 -267 -245 -200 -211 -220 -209 -210 -233 -224 -262 -384 -741 -319 -175 -173 -152 -138 -122
-297 -298 -349 -333 -293 -246 -222 -202 -182 -198 -198 -222 -203 -175 -447 -822 -209 -184 -155 -126 -178 -238
-307 -305 -305 -299 -272 -241 -204 -171 -163 -145 -146 -148 -154 -139 -365 -777 -251 -142 -117 -148 -183 -206
Wind_Speed
8 8 9 6 6 5 7 8 10 9 10 9 9 7 7 5 5 6 5 5 4 3
14 9 13 13 5 7 6 8 12 12 11 11 11 9 7 7 7 6 6 7 6 3
18 17 11 9 11 7 8 7 9 13 14 13 13 12 10 5 6 7 6 5 6 5
16 16 13 11 11 10 7 7 7 12 13 13 13 10 10 8 7 8 7 6 8 8
16 14 16 14 10 14 9 9 7 10 12 11 13 13 12 12 11 10 9 9 9 10
16 16 16 17 16 8 15 11 11 8 13 14 14 13 14 13 12 10 10 12 11 12
19 18 17 17 16 17 12 14 10 12 11 14 15 15 15 15 14 14 12 9 13 13
19 19 17 18 17 17 18 14 14 12 12 12 13 12 16 16 16 16 15 14 12 15
19 18 19 17 18 16 16 17 15 16 17 15 12 17 19 18 15 16 16 15 15 14
19 20 19 19 17 18 17 16 18 18 16 19 18 17 19 20 15 16 17 18 15 15
18 19 18 18 19 18 17 18 17 17 18 16 17 15 18 18 19 16 17 17 18 17
17 19 18 19 19 17 16 16 16 15 16 19 17 14 16 13 14 18 21 16 16 17
17 17 18 18 18 16 16 16 13 15 16 17 16 14 16 16 12 16 13 16 18 19
12 15 14 14 14 14 15 13 13 13 13 14 13 12 17 20 13 13 13 14 14 13
Wind_Direction
185 199 203 195 201 189 181 184 189 189 181 180 182 185 185 186 191 182 184 196 217 189
196 198 207 213 198 198 186 188 188 192 180 186 185 190 183 195 197 181 186 199 206 206
202 204 204 200 212 213 207 195 182 192 191 185 185 191 193 184 194 193 192 192 188 215
205 206 204 200 208 217 205 204 180 185 192 189 189 186 193 195 189 192 190 188 183 209
202 203 207 210 202 209 215 207 191 183 182 185 192 194 192 200 204 200 194 193 189 199
205 204 204 211 214 197 214 216 211 176 192 193 193 192 201 201 203 205 202 198 196 198
201 204 207 207 211 216 212 214 208 210 197 198 197 199 201 202 207 212 213 204 206 203
200 203 205 209 207 210 216 216 215 212 216 204 205 201 203 204 207 212 216 216 207 206
199 201 204 206 209 209 209 215 213 213 218 218 216 209 203 203 210 214 216 220 221 220
197 200 203 205 205 209 211 209 216 220 214 221 223 211 205 202 215 219 219 220 221 222
198 202 202 203 207 207 209 212 214 218 221 222 227 206 206 200 218 226 228 226 225 225
192 198 200 205 206 206 209 213 217 219 220 227 231 204 200 188 221 232 232 230 230 228
191 195 200 201 204 204 209 213 213 220 221 225 231 209 195 196 221 235 238 235 237 226
186 192 194 197 198 200 205 209 215 220 225 227 225 225 193 199 216 230 237 238 241 240